Tracking 25693 objects as of 1-Jul-2022
HD Live streaming from Space Station
objects crossing your sky now

STARLINK-1909

Track STARLINK-1909 now!
10-day predictions
STARLINK-1909 is classified as:


NORAD ID: 47550
Int'l Code: 2021-009C
Perigee: 553.3 km
Apogee: 555.4 km
Inclination: 53.1 °
Period: 95.6 minutes
Semi major axis: 6925 km
RCS: Unknown
Launch date: February 4, 2021
Source: United States (US)
Launch site: AIR FORCE EASTERN TEST RANGE (AFETR)
aabbcc
Your satellite tracking list
Your tracking list is empty




NASA's NSSDC Master Catalog

Two Line Element Set (TLE):
1 47550U 21009C   22182.58305344  .00000224  00000-0  33947-4 0  9998
2 47550  53.0545 289.0157 0001517  64.9698 295.1448 15.06406346 78039
Source of the keplerian elements: AFSPC